Juneau, WI

2:16 AM CST on December 16, 2019 (GMT -0600)
Dodge County

Weather History for KUNU - October, 2019

Change the Weather History Date:

Sunday, October 13, 2019

  Actual Average Record
Temperature  
Mean Temperature 36 °F -  
Max Temperature 40 °F 58 °F 86 °F (1975)
Min Temperature 32 °F 40 °F 23 °F (1988)
Degree Days  
Heating Degree Days 28    
Moisture  
Dew Point 32 °F    
Average Humidity 82    
Maximum Humidity 94    
Minimum Humidity 68    
Precipitation  
Precipitation 0.00 in - - ()
Sea Level Pressure  
Sea Level Pressure 29.81 in    
Wind  
Wind Speed 12 mph ()    
Max Wind Speed 20 mph    
Max Gust Speed 32 mph    
Visibility 10.0 miles    
Events Rain    
Averages and records for this station are not official NWS values.
T = Trace of Precipitation, MM = Missing Value Source: Averaged Metar Reports

Daily Weather History Graph

Daily Weather History Graph

Search for Another Location

Airport or City:

Astronomy

Oct. 13, 2019 Rise Set
Actual Time 7:06 AM CDT 6:15 PM CDT
Civil Twilight 6:37 AM CDT 6:43 PM CDT
Nautical Twilight 6:04 AM CDT 7:17 PM CDT
Astronomical Twilight 5:31 AM CDT 7:50 PM CDT
Moon 6:39 PM CDT (10/13) 6:37 AM CDT (10/13)
Length of Visible Light 12h 06m
Length of Day
11h 09m
Full, 100% of the Moon is Illuminated
Oct 13
Full
Oct 13
Full
Oct 21
Last Quarter
Oct 27
New
Nov 4
First Quarter

Hourly Weather History & Observations

Time (CDT) Temp. Windchill Dew Point Humidity Pressure Visibility Wind Dir Wind Speed Gust Speed Precip Events Conditions
12:15 AM 35.8 °F 26.5 °F 33.1 °F 90% 29.75 in 10.0 mi SW 15.0 mph 20.7 mph N/A   Overcast
12:55 AM 36.5 °F 27.0 °F 32.4 °F 85% 29.74 in 10.0 mi SSW 16.1 mph 26.5 mph N/A   Overcast
1:15 AM 36.7 °F 27.2 °F 32.5 °F 85% 29.75 in 10.0 mi SW 16.1 mph 23.0 mph N/A   Overcast
1:35 AM 36.3 °F 25.8 °F 32.2 °F 85% 29.75 in 10.0 mi SW 19.6 mph 32.2 mph N/A   Overcast
1:55 AM 36.0 °F 25.3 °F 32.9 °F 89% 29.76 in 10.0 mi SW 19.6 mph 25.3 mph N/A Rain Light Rain
2:15 AM 35.6 °F 25.9 °F 32.4 °F 88% 29.76 in 10.0 mi WSW 16.1 mph 24.2 mph N/A   Overcast
2:35 AM 35.2 °F 25.4 °F 32.5 °F 90% 29.76 in 10.0 mi SW 16.1 mph 20.7 mph N/A   Overcast
2:55 AM 35.1 °F 26.4 °F 33.1 °F 92% 29.76 in 10.0 mi WSW 12.7 mph - N/A   Overcast
3:15 AM 35.1 °F 27.4 °F 32.9 °F 92% 29.75 in 10.0 mi SW 10.4 mph 17.3 mph N/A   Overcast
3:35 AM 35.1 °F 25.9 °F 32.9 °F 92% 29.75 in 10.0 mi SW 13.8 mph - N/A   Overcast
3:55 AM 35.1 °F 26.9 °F 32.9 °F 92% 29.75 in 10.0 mi SW 11.5 mph 17.3 mph N/A   Overcast
4:15 AM 35.1 °F 26.4 °F 32.0 °F 89% 29.75 in 10.0 mi SW 12.7 mph 21.9 mph N/A   Overcast
5:55 AM 35.1 °F 25.9 °F 31.6 °F 87% 29.76 in 10.0 mi SW 13.8 mph 19.6 mph N/A   Overcast
6:55 AM 35.2 °F 26.6 °F 31.5 °F 86% 29.77 in 10.0 mi SW 12.7 mph 18.4 mph N/A   Overcast
7:15 AM 35.2 °F 27.6 °F 31.5 °F 86% 29.76 in 10.0 mi SW 10.4 mph - N/A   Overcast
7:35 AM 35.4 °F 26.8 °F 30.9 °F 84% 29.76 in 10.0 mi SW 12.7 mph - N/A   Overcast
7:55 AM 35.4 °F 26.0 °F 30.9 °F 84% 29.77 in 10.0 mi SW 15.0 mph 21.9 mph N/A   Overcast
8:15 AM 35.2 °F 26.6 °F 31.3 °F 85% 29.77 in 10.0 mi SW 12.7 mph 23.0 mph N/A   Overcast
8:35 AM 34.7 °F 26.9 °F 32.0 °F 90% 29.77 in 10.0 mi SW 10.4 mph - N/A   Overcast
8:55 AM 34.7 °F 26.9 °F 32.0 °F 90% 29.77 in 10.0 mi SW 10.4 mph - N/A   Overcast
9:15 AM 34.7 °F 27.5 °F 32.4 °F 91% 29.78 in 10.0 mi SW 9.2 mph - N/A   Overcast
9:35 AM 35.6 °F 27.5 °F 32.4 °F 88% 29.77 in 10.0 mi SW 11.5 mph - N/A   Overcast
9:55 AM 35.8 °F 27.8 °F 32.0 °F 86% 29.78 in 10.0 mi SW 11.5 mph - N/A   Overcast
10:15 AM 35.8 °F 28.3 °F 31.8 °F 86% 29.78 in 10.0 mi SW 10.4 mph - N/A   Overcast
10:35 AM 36.7 °F 28.0 °F 32.0 °F 83% 29.78 in 10.0 mi SW 13.8 mph 18.4 mph N/A   Overcast
10:55 AM 37.0 °F 28.1 °F 31.3 °F 80% 29.79 in 10.0 mi SW 15.0 mph 23.0 mph N/A   Overcast
11:15 AM 37.2 °F 27.9 °F 30.9 °F 78% 29.80 in 10.0 mi WSW 16.1 mph - N/A   Overcast
11:35 AM 37.6 °F 29.6 °F 31.1 °F 77% 29.80 in 10.0 mi SW 12.7 mph 18.4 mph N/A   Overcast
11:55 AM 37.4 °F 28.9 °F 30.9 °F 77% 29.79 in 10.0 mi SW 13.8 mph 21.9 mph N/A   Overcast
12:15 PM 37.8 °F 29.0 °F 31.5 °F 78% 29.79 in 10.0 mi WSW 15.0 mph 20.7 mph N/A   Overcast
12:35 PM 38.1 °F 29.1 °F 31.3 °F 76% 29.79 in 10.0 mi WSW 16.1 mph 20.7 mph N/A   Overcast
12:55 PM 38.3 °F 31.4 °F 31.5 °F 76% 29.79 in 10.0 mi WSW 10.4 mph - N/A   Overcast
1:15 PM 37.9 °F 30.0 °F 31.1 °F 76% 29.80 in 10.0 mi SW 12.7 mph 18.4 mph N/A   Overcast
1:35 PM 38.3 °F 30.1 °F 31.3 °F 76% 29.79 in 10.0 mi SW 13.8 mph - N/A   Overcast
1:55 PM 37.9 °F 28.9 °F 30.9 °F 76% 29.80 in 10.0 mi WSW 16.1 mph 20.7 mph N/A   Overcast
2:15 PM 37.9 °F 32.1 °F 31.6 °F 78% 29.80 in 10.0 mi SW 8.1 mph - N/A   Light Drizzle
2:35 PM 37.8 °F 28.6 °F 31.3 °F 77% 29.81 in 10.0 mi WSW 16.1 mph 21.9 mph N/A   Overcast
2:55 PM 38.3 °F 29.3 °F 31.8 °F 77% 29.81 in 10.0 mi WSW 16.1 mph 19.6 mph N/A   Overcast
3:15 PM 39.6 °F 31.3 °F 31.6 °F 73% 29.81 in 7.0 mi WSW 15.0 mph 23.0 mph N/A   Overcast
3:35 PM 40.1 °F 31.3 °F 31.5 °F 71% 29.81 in 10.0 mi WSW 17.3 mph 24.2 mph N/A   Overcast
3:55 PM 40.8 °F 32.3 °F 31.1 °F 68% 29.81 in 10.0 mi SW 17.3 mph - N/A   Overcast
4:15 PM 40.6 °F 33.4 °F 31.1 °F 69% 29.82 in 10.0 mi WSW 12.7 mph - N/A   Overcast
4:35 PM 40.5 °F 33.6 °F 30.7 °F 68% 29.82 in 10.0 mi WSW 11.5 mph - N/A   Overcast
4:55 PM 40.5 °F 32.5 °F 31.6 °F 71% 29.83 in 10.0 mi WSW 15.0 mph 20.7 mph N/A   Overcast
5:15 PM 40.1 °F 32.7 °F 31.5 °F 71% 29.83 in 10.0 mi WSW 12.7 mph - N/A   Overcast
5:35 PM 40.1 °F 33.6 °F 32.0 °F 73% 29.85 in 10.0 mi SW 10.4 mph - N/A   Overcast
5:55 PM 39.7 °F 31.9 °F 32.0 °F 74% 29.86 in 10.0 mi WSW 13.8 mph - N/A   Overcast
6:15 PM 39.6 °F 33.5 °F 32.0 °F 74% 29.86 in 10.0 mi WSW 9.2 mph - N/A   Overcast
6:35 PM 39.4 °F 32.3 °F 32.0 °F 75% 29.86 in 10.0 mi SW 11.5 mph - N/A   Overcast
6:55 PM 38.5 °F 32.1 °F 32.0 °F 78% 29.87 in 10.0 mi SW 9.2 mph - N/A   Overcast
7:15 PM 37.8 °F 31.3 °F 32.0 °F 80% 29.88 in 10.0 mi SW 9.2 mph - N/A   Overcast
7:35 PM 38.3 °F 32.5 °F 32.2 °F 79% 29.89 in 10.0 mi WSW 8.1 mph - N/A   Overcast
7:55 PM 38.5 °F 31.6 °F 32.4 °F 79% 29.89 in 10.0 mi SW 10.4 mph - N/A   Overcast
8:15 PM 38.7 °F 34.3 °F 32.7 °F 79% 29.90 in 10.0 mi WSW 5.8 mph - N/A   Overcast
8:35 PM 38.1 °F 31.7 °F 32.4 °F 80% 29.90 in 10.0 mi SW 9.2 mph - N/A   Overcast
8:55 PM 37.8 °F 31.8 °F 32.5 °F 81% 29.90 in 10.0 mi SW 8.1 mph - N/A   Overcast
9:15 PM 36.5 °F 31.0 °F 32.2 °F 84% 29.91 in 10.0 mi WSW 6.9 mph - N/A   Scattered Clouds
9:35 PM 35.8 °F 30.1 °F 32.0 °F 86% 29.91 in 10.0 mi SW 6.9 mph - N/A   Clear
9:55 PM 34.3 °F 31.4 °F 32.0 °F 91% 29.91 in 10.0 mi SW 3.5 mph - N/A   Clear
10:15 PM 34.0 °F 31.0 °F 32.0 °F 92% 29.91 in 10.0 mi WSW 3.5 mph - N/A   Clear
10:35 PM - - - N/A% 29.91 in 10.0 mi WSW 4.6 mph - N/A   Clear
10:55 PM 33.6 °F 28.4 °F 32.0 °F 94% 29.91 in 10.0 mi WSW 5.8 mph - N/A   Clear
11:55 PM 32.9 °F 28.5 °F 31.1 °F 93% 29.92 in 10.0 mi WSW 4.6 mph - N/A   Scattered Clouds